Regional Weather Roundup
Issued by NWS

Home | Current Version | Previous Version | Text Only | Print | Product List | Glossary Off
Versions: 1 2 3 4 5 6 7 8 9 10 11 12 13 14 15 16 17 18 19 20 21 22 23 24 25 26 27 28 29 30 31 32 33 34 35 36 37 38 39 40 41 42 43 44 45 46 47 48 49 50

000
ASUS43 KBIS 050210
RWRND

NORTH DAKOTA REGIONAL WEATHER ROUNDUP
NATIONAL WEATHER SERVICE BISMARCK ND
900 PM CDT SAT JUL 04 2015

NOTE: "FAIR" INDICATES FEW OR NO CLOUDS BELOW 12,000 FEET WITH NO
SIGNIFICANT WEATHER AND/OR OBSTRUCTIONS TO VISIBILITY.


NDZ001>003-009>011-017-050300-
NORTHWEST NORTH DAKOTA

CITY           SKY/WX    TMP DP  RH WIND       PRES   REMARKS
WILLISTON      CLEAR     78  68  71 NE12      29.76R
MINOT          CLOUDY    69  65  86 NW6       29.73F
MINOT AFB      DRIZZLE   69  69 100 N9        29.72F
$$

NDZ018>021-031>035-040>046-050300-
SOUTHWEST NORTH DAKOTA

CITY           SKY/WX    TMP DP  RH WIND       PRES   REMARKS
BISMARCK       CLOUDY    81  71  71 SE5       29.71R
DICKINSON      MOCLDY    79  62  56 SW8       29.74R
GARRISON         N/A     75  68  78 CALM      29.69F
HETTINGER ARPT MOCLDY    77  70  79 CALM      29.79R
$$

NDZ004>008-012>016-024-026-027-054-050300-
NORTHEAST NORTH DAKOTA

CITY           SKY/WX    TMP DP  RH WIND       PRES   REMARKS
GRAND FORKS    MOCLDY    79  68  69 S9        29.72R
GRND FRKS AFB  MOCLDY    79  69  70 S9        29.73R
DEVILS LAKE    CLOUDY    81  66  61 S9        29.71S
$$

NDZ022-023-025-028>030-036>039-047>053-050300-
SOUTHEAST NORTH DAKOTA

CITY           SKY/WX    TMP DP  RH WIND       PRES   REMARKS
FARGO          PTCLDY    80  66  62 SE12      29.75R
JAMESTOWN      CLOUDY    75  69  81 SE8       29.76R
$$




USA.gov is the U.S. government's official web portal to all federal, state and local government web resources and services.